Location: Muenchen
(48.1800°N, 11.5800°E)
Time: 17:54:17
(UTC+02:00)

ISS - Visible Passes

Search period start: 25 July 2016 00:00
Search period end: 04 August 2016 00:00
Orbit: 401 x 404 km, 51.6° (Epoch: 25 July)

Date Brightness Start Highest point End Pass type
(mag) Time Alt. Az. Time Alt. Az. Time Alt. Az.
25 Jul -1.6 00:46:52 26° ENE 00:46:52 26° ENE 00:48:26 10° ENE visible
25 Jul -2.1 02:19:26 15° WNW 02:21:53 43° N 02:25:01 10° ENE visible
25 Jul -3.2 03:55:18 10° WNW 03:58:34 79° NNE 04:01:50 10° ESE visible
25 Jul -0.7 23:55:17 12° ENE 23:55:17 12° ENE 23:55:30 10° ENE visible
26 Jul -2.2 01:27:49 32° NW 01:28:51 44° N 01:32:00 10° ENE visible
26 Jul -2.7 03:02:22 10° WNW 03:05:35 58° NNE 03:08:49 10° E visible
26 Jul -2.8 04:38:54 10° WNW 04:41:58 37° SSW 04:45:00 10° SE visible
26 Jul -3.2 22:56:12 10° SW 22:59:21 49° SSE 23:02:31 10° ENE visible
27 Jul -2.5 00:32:37 10° W 00:35:49 51° N 00:39:01 10° ENE visible
27 Jul -2.3 02:09:24 10° WNW 02:12:34 47° N 02:15:46 10° E visible
27 Jul -3.4 03:45:53 10° WNW 03:49:07 62° SSW 03:52:20 10° SE visible
27 Jul -2.5 22:03:39 10° SSW 22:06:32 30° SE 22:09:26 10° E visible
27 Jul -3.0 23:39:34 10° W 23:42:49 66° NNW 23:46:04 10° ENE visible
28 Jul -2.2 01:16:24 10° WNW 01:19:33 43° N 01:22:41 10° ENE visible
28 Jul -3.4 02:52:56 10° WNW 02:56:12 87° NNE 02:59:28 10° ESE visible
28 Jul -2.0 04:29:51 10° W 04:32:19 20° SW 04:34:47 10° S visible
28 Jul -3.4 22:46:36 10° WSW 22:49:51 87° SSE 22:53:08 10° ENE visible
29 Jul -2.2 00:23:21 10° WNW 00:26:30 43° N 00:27:59 25° NE visible
29 Jul -0.7 02:00:00 10° WNW 02:00:32 14° WNW 02:00:32 14° WNW visible
29 Jul -3.3 21:53:45 10° SW 21:56:57 56° SSE 22:00:09 10° ENE visible
29 Jul -2.4 23:30:16 10° W 23:33:27 49° N 23:36:28 11° ENE visible
30 Jul -1.7 01:07:02 10° WNW 01:09:03 31° NW 01:09:03 31° NW visible
30 Jul -2.8 22:37:12 10° W 22:40:26 61° NNW 22:43:40 10° ENE visible
31 Jul -2.2 00:14:02 10° WNW 00:17:11 44° N 00:17:41 40° NNE visible
31 Jul -3.3 21:44:11 10° WSW 21:47:27 84° NNW 21:50:44 10° ENE visible
31 Jul -2.2 23:20:58 10° WNW 23:24:07 43° N 23:26:20 17° ENE visible
01 Aug -1.2 00:57:35 10° WNW 00:58:55 22° WNW 00:58:55 22° WNW visible
01 Aug -2.3 22:27:53 10° W 22:31:04 47° N 22:34:14 10° ENE visible
02 Aug -2.5 00:04:38 10° WNW 00:07:38 51° N 00:07:38 51° N visible
02 Aug -2.6 21:34:48 10° W 21:38:02 57° NNW 21:41:16 10° ENE visible
02 Aug -2.3 23:11:37 10° WNW 23:14:47 45° N 23:16:20 24° ENE visible
03 Aug -0.8 00:48:07 10° WNW 00:48:55 16° WNW 00:48:55 16° WNW visible
03 Aug -2.2 22:18:34 10° WNW 22:21:43 43° N 22:24:51 10° ENE visible
